Location: Invercargill
(46.4000°S, 168.3500°E)
Time: 20:46:24
(UTC+12:00)

Tiangong 2 - Visible Passes

Search period start: 24 June 2019 00:00
Search period end: 04 July 2019 00:00
Orbit: 376 x 388 km, 42.8° (Epoch: 24 June)

Date Brightness Start Highest point End Pass type
(mag) Time Alt. Az. Time Alt. Az. Time Alt. Az.
24 Jun 2.6 17:59:28 10° NW 18:02:15 28° NNE 18:05:03 10° ENE visible
24 Jun 3.2 19:35:35 10° WNW 19:37:18 26° NW 19:37:18 26° NW visible
25 Jun 2.0 18:35:28 10° WNW 18:38:30 41° N 18:39:54 25° ENE visible
25 Jun 4.7 20:11:59 10° W 20:12:05 11° WNW 20:12:05 11° WNW visible
26 Jun 2.1 19:11:45 10° WNW 19:14:43 40° N 19:14:43 40° N visible
27 Jun 2.0 18:11:35 10° WNW 18:14:39 43° N 18:17:23 12° ENE visible
27 Jun 3.8 19:48:15 10° WNW 19:49:34 19° WNW 19:49:34 19° WNW visible
28 Jun 2.4 18:47:57 10° W 18:50:55 34° NNW 18:52:19 23° NE visible
29 Jun 2.3 17:47:43 10° WNW 17:50:47 41° N 17:53:49 10° ENE visible
29 Jun 3.3 19:24:38 10° WNW 19:27:03 20° NNW 19:27:22 19° NNW visible
30 Jun 3.0 18:24:12 10° WNW 18:27:00 27° NNW 18:29:46 10° NE visible
01 Jul 4.0 19:01:18 10° WNW 19:03:02 14° NNW 19:04:45 10° N visible
02 Jul 3.7 18:00:32 10° WNW 18:03:01 20° NNW 18:05:27 10° NNE visible
